Hourly Weather Dziadowice

Today, 6 May, Thursday

Time Temperature Precipitation Wind Pressure Humidity
00:00 +2°C° 0 mm 7 mps 739 mmHg 91%
01:00 +2°C° 0 mm 7 mps 739 mmHg 90%
02:00 +1°C° 0 mm 8 mps 739 mmHg 89%
03:00 0°C° 0 mm 8 mps 740 mmHg 89%
04:00 0°C° 0 mm 8 mps 740 mmHg 88%
05:00 0°C° 0 mm 8 mps 741 mmHg 84%
06:00 +1°C° 0 mm 8 mps 741 mmHg 80%
07:00 +2°C° 0 mm 9 mps 742 mmHg 76%
08:00 +3°C° 0 mm 9 mps 742 mmHg 68%
09:00 +6°C° 0 mm 9 mps 742 mmHg 60%
10:00 +7°C° 0 mm 9 mps 742 mmHg 52%
11:00 +9°C° 0 mm 8 mps 742 mmHg 50%
12:00 +10°C° 0 mm 8 mps 742 mmHg 48%
13:00 +11°C° 0 mm 7 mps 741 mmHg 46%
14:00 +11°C° 0.1 mm 7 mps 741 mmHg 49%
15:00 +11°C° 0.1 mm 6 mps 740 mmHg 53%
16:00 +11°C° 0.1 mm 6 mps 740 mmHg 57%
17:00 +10°C° 0.2 mm 6 mps 740 mmHg 64%
18:00 +8°C° 0.2 mm 6 mps 740 mmHg 71%
19:00 +7°C° 0.2 mm 6 mps 739 mmHg 79%
20:00 +7°C° 0.1 mm 6 mps 739 mmHg 81%
21:00 +7°C° 0.1 mm 6 mps 739 mmHg 83%
22:00 +7°C° 0.1 mm 6 mps 739 mmHg 85%
23:00 +5°C° 0.2 mm 6 mps 739 mmHg 87%

Tomorrow, 7 May, Friday

Time Temperature Precipitation Wind Pressure Humidity
00:00 +6°C° 0.2 mm 5 mps 739 mmHg 90%
01:00 +6°C° 0.2 mm 5 mps 739 mmHg 92%
02:00 +6°C° 0.2 mm 5 mps 739 mmHg 92%
03:00 +5°C° 0.2 mm 4 mps 739 mmHg 92%
04:00 +5°C° 0.2 mm 4 mps 739 mmHg 92%
05:00 +5°C° 0.1 mm 4 mps 740 mmHg 91%
06:00 +5°C° 0.1 mm 4 mps 740 mmHg 89%
07:00 +5°C° 0.1 mm 4 mps 741 mmHg 87%
08:00 +6°C° 0.1 mm 5 mps 741 mmHg 80%
09:00 +7°C° 0.1 mm 5 mps 742 mmHg 72%
10:00 +8°C° 0.1 mm 5 mps 742 mmHg 65%
11:00 +8°C° 0 mm 5 mps 743 mmHg 61%
12:00 +8°C° 0 mm 5 mps 743 mmHg 58%
13:00 +9°C° 0 mm 5 mps 744 mmHg 54%
14:00 +9°C° 0.1 mm 5 mps 744 mmHg 54%
15:00 +9°C° 0.1 mm 5 mps 744 mmHg 54%
16:00 +10°C° 0.1 mm 4 mps 745 mmHg 54%
17:00 +8°C° 0.1 mm 4 mps 745 mmHg 61%
18:00 +8°C° 0.1 mm 3 mps 745 mmHg 68%
19:00 +7°C° 0.1 mm 3 mps 746 mmHg 76%
20:00 +5°C° 0 mm 3 mps 746 mmHg 78%
21:00 +4°C° 0 mm 3 mps 746 mmHg 80%
22:00 +3°C° 0 mm 3 mps 746 mmHg 83%
23:00 +3°C° 0 mm 3 mps 746 mmHg 84%

Day after tomorrow, 8 May, Saturday

Time Temperature Precipitation Wind Pressure Humidity
00:00 +3°C° 0 mm 3 mps 746 mmHg 84%
01:00 +3°C° 0 mm 3 mps 746 mmHg 85%
02:00 +3°C° 0 mm 3 mps 746 mmHg 85%
03:00 +4°C° 0 mm 3 mps 745 mmHg 84%
04:00 +4°C° 0 mm 3 mps 745 mmHg 84%
05:00 +5°C° 0 mm 3 mps 745 mmHg 82%
06:00 +6°C° 0 mm 4 mps 744 mmHg 80%
07:00 +7°C° 0 mm 4 mps 744 mmHg 79%
08:00 +7°C° 0.2 mm 4 mps 744 mmHg 83%
09:00 +6°C° 0.2 mm 5 mps 743 mmHg 87%
10:00 +6°C° 0.2 mm 5 mps 742 mmHg 92%
11:00 +8°C° 0.1 mm 5 mps 742 mmHg 88%
12:00 +10°C° 0.1 mm 6 mps 741 mmHg 84%
13:00 +11°C° 0.1 mm 6 mps 741 mmHg 80%
14:00 +13°C° 0 mm 5 mps 740 mmHg 81%
15:00 +13°C° 0 mm 4 mps 740 mmHg 83%
16:00 +14°C° 0 mm 4 mps 740 mmHg 84%
17:00 +14°C° 0.1 mm 4 mps 739 mmHg 85%
18:00 +14°C° 0.1 mm 4 mps 739 mmHg 86%
19:00 +14°C° 0.1 mm 5 mps 739 mmHg 87%
20:00 +14°C° 0 mm 5 mps 739 mmHg 87%
21:00 +14°C° 0 mm 5 mps 739 mmHg 88%
22:00 +14°C° 0 mm 5 mps 738 mmHg 88%
23:00 +13°C° 0 mm 5 mps 738 mmHg 90%

9 May, Sunday

Time Temperature Precipitation Wind Pressure Humidity
00:00 +13°C° 0 mm 4 mps 738 mmHg 91%
01:00 +12°C° 0 mm 4 mps 738 mmHg 92%

10 May, Monday

Time Temperature Precipitation Wind Pressure Humidity

11 May, Tuesday

Time Temperature Precipitation Wind Pressure Humidity
Show more